Regional Weather Roundup
Issued by NWS

Home | Current Version | Previous Version | Text Only | Print | Product List | Glossary Off
Versions: 1 2 3 4 5 6 7 8 9 10 11 12 13 14 15 16 17 18 19 20 21 22 23 24 25 26 27 28 29 30 31 32 33 34 35 36 37 38 39 40 41 42 43 44 45 46 47 48 49 50

000
ASUS45 KBOU 232207
RWRCO

WEATHER ROUNDUP FOR COLORADO
NATIONAL WEATHER SERVICE DENVER/BOULDER CO
300 PM MST THU FEB 23 2017

NOTE: "FAIR" INDICATES FEW OR NO CLOUDS BELOW 12000 FEET WITH NO
SIGNIFICANT WEATHER AND/OR OBSTRUCTIONS TO VISIBILITY.

COZ001>005-013-030-031-232300-
...NORTHWEST COLORADO...

CITY           SKY/WX    TMP DP  RH WIND       PRES   REMARKS
CRAIG          CLOUDY    29  13  51 W15       29.64R WCI  18
HAYDEN         CLOUDY    27  10  50 NW12      29.62R WCI  16
MEEKER         FLURRIES  27  17  66 NW3       29.64R
MOUNT WERNER   NOT AVBL
STEAMBOAT SPGS CLOUDY    24  13  65 NW7       29.62R WCI  16
WALDEN         NOT AVBL
$$

COZ006>008-011-232300-
...WEST CENTRAL VALLEYS...

CITY           SKY/WX    TMP DP  RH WIND       PRES   REMARKS
GRAND JUNCTION PTSUNNY   42   8  24 NW20G28   29.68S
MONTROSE       FAIR      37   6  27 SW17G26   29.70R
EAGLE          PTSUNNY   32   9  37 SW20G30   29.64S WCI  20
RIFLE          FLURRIES  31  20  63 VRB5G23   29.69R WCI  26
DELTA          FAIR      43   0  17 W21G28    29.69R
NUCLA          PTSUNNY   37  -2  18 W13G23    29.73S
$$

COZ017>023-064>068-232300-
...SOUTHWEST COLORADO...

CITY           SKY/WX    TMP DP  RH WIND       PRES   REMARKS
DURANGO        PTSUNNY   33   2  26 W17G31    29.69S WCI  22
CORTEZ         FAIR      37   2  22 W14       29.72S
PAGOSA SPRINGS CLOUDY    30   2  29 W14G24    29.66S WCI  20
TELLURIDE      LGT SNOW  19  10  70 W8        29.67R WCI   8
WOLF CREEK PAS CLOUDY     5   3  92 SW29G41   29.57R WCI -19
$$

COZ009-010-012-014-032>034-037-058>063-232300-
...CENTRAL COLORADO...

CITY           SKY/WX    TMP DP  RH WIND       PRES   REMARKS
ASPEN          CLOUDY    23  10  57 E6        29.60S WCI  16
BUENA VISTA    PTSUNNY   27   1  33 SW15      29.60R WCI  15
COPPER MTN     CLOUDY    10   3  72 MISG      29.49R
BERTHOUD PASS  SNOW       1  -8  66 MISG      29.44R VSB 1/4
COTTONWOOD PAS LGT SNOW  19   3  49 W15G28    29.56R WCI   5
GUNNISON       FLURRIES  23  10  57 NW20G26   29.63R WCI   8
KREMMLING      CLOUDY    32  21  64 N7        29.60R WCI  26
LEADVILLE      LGT SNOW  12   1  61 W12G18    29.55R WCI  -2
MONARCH PASS   CLOUDY     5   1  85 W33G45    29.61R HAZE    WCI -20
SALIDA         FAIR      32  -1  24 W18G30    29.68R WCI  21
SUNLIGHT       NOT AVBL
WILKERSON PASS CLOUDY    19   3  49 SW17G32   29.50R WCI   4
$$

COZ069>075-232300-
...SAN LUIS VALLEY/SANGRE DE CRISTO MOUNTAINS...

CITY           SKY/WX    TMP DP  RH WIND       PRES   REMARKS
ALAMOSA        FAIR      34   8  33 SW26      29.60R WCI  21
LA VETA PASS   FAIR      25   5  42 S37G60    29.47R WCI   6
SAGUACHE       CLOUDY    28   3  34 N22G30    29.60R WCI  15
$$

COZ035-036-038>040-232300-
...NORTHERN COLORADO FRONT RANGE...

CITY           SKY/WX    TMP DP  RH WIND       PRES   REMARKS
DENVER INTL AP LGT SNOW  29  25  85 N15       29.60R VSB 1   WCI  18
DMNS CITY PARK   N/A     29  28  94 N7        29.60R WCI  22
AURORA         LGT SNOW  29  28  99 NE14      29.59R FOG     WCI  18
FRONT RANGE AP NOT AVBL
ERIE MUNI ARPT LGT SNOW  27  25  92 N15G29    29.64R VSB 3/4 WCI  15
BOULDER MUN AP LGT SNOW  27  27 100 N12G21    29.64R VSB 3/4 WCI  16
CENTENNIAL     SNOW      28  26  92 N13       29.58R VSB 1/4 WCI  17
BROOMFIELD     SNOW      28  27  93 N22       29.61R VSB 1/2 WCI  15
FORT COLLINS   PTSUNNY   25  20  81 N22       29.66R WCI  10
LONGMONT       LGT SNOW  30  25  81 N15G23    29.68R WCI  19
$$

COZ041-046-047-076>085-087-088-232300-
...PIKES PEAK/PALMER DIVIDE AND SOUTHERN FOOTHILLS...

CITY           SKY/WX    TMP DP  RH WIND       PRES   REMARKS
COLO. SPRINGS  PTSUNNY   38  21  50 N15       29.52R
A. F. ACADEMY  PTSUNNY   32  24  70 N18G26    29.51R WCI  21
SCHRIEVER AFB  FAIR      35  21  57 N18G28    29.51R WCI  24
ELLICOTT       FAIR     N/A N/A N/A NE15G22   29.50S
FALCON         PTSUNNY   36  23  59 N18       29.53R
FORT CARSON    PTSUNNY   41  22  47 CALM      29.50R
LIMON          LGT SNOW  31  30  96 N13       29.54R FOG     WCI  21
MONUMENT HILL  LGT SNOW  27  25  93 N9        29.54R WCI  17
TRINIDAD       FAIR      50   3  14 W24G43    29.50R
$$

COZ042>045-048>051-090-091-232300-
...NORTHEAST COLORADO...

CITY           SKY/WX    TMP DP  RH WIND       PRES   REMARKS
GREELEY ARPT   CLOUDY    27  22  81 N18       29.68R WCI  14
AKRON          LGT SNOW  26  23  88 N20G25    29.61R FOG     WCI  12
BURLINGTON     CLOUDY    33  30  88 NE16      29.54R WCI  23
WRAY           NOT AVBL
STERLING       LGT SNOW  27  23  86 N13G20    29.65R WCI  16
HOLYOKE        LGT SNOW  30  27  86 N10       29.63R VSB 1   WCI  21
FORT MORGAN    CLOUDY    26  22  86 N21       29.65R WCI  12
$$

COZ086-089-092>099-232300-
...SOUTHEAST COLORADO...

CITY           SKY/WX    TMP DP  RH WIND       PRES   REMARKS
PUEBLO         FAIR      50   8  18 W24G36    29.50R
LA JUNTA       FAIR      52  22  30 NW12      29.48R
LAMAR          FAIR      50  33  52 NE17      29.45R
SPRINGFIELD      N/A     61   9  12 NW25G35   29.41R
$$



USA.gov is the U.S. government's official web portal to all federal, state and local government web resources and services.